Watford City, ND

12:58 PM CST on January 18, 2018 (GMT -0600)
Watford City

Weather History for KS25 - February, 2013

Change the Weather History Date:

Monday, February 18, 2013

  Actual Average (KISN) Record (KISN)
Temperature  
Mean Temperature 5 °F -  
Max Temperature 17 °F 28 °F 55 °F (1930)
Min Temperature -7 °F 7 °F -40 °F (1910)
Degree Days  
Heating Degree Days 60    
Moisture  
Dew Point 5 °F    
Average Humidity 81    
Maximum Humidity 86    
Minimum Humidity 72    
Precipitation  
Precipitation 1.29 in - - ()
Sea Level Pressure  
Sea Level Pressure 30.06 in    
Wind  
Wind Speed 16 mph (NNW)    
Max Wind Speed 24 mph    
Max Gust Speed 31 mph    
Visibility 8 miles    
Events Rain , Snow    
Averages and records for this station are not official NWS values.
T = Trace of Precipitation, MM = Missing Value Source: NWS Daily Summary

Daily Weather History Graph

Daily Weather History Graph

Search for Another Location

Airport or City:

Trip Planner

Search our weather history database for the weather conditions in past years. The results will help you decide how hot, cold, wet, or windy it might be!

Date:

Astronomy

Feb. 18, 2013 Rise Set
Actual Time 7:53 AM CST 6:21 PM CST
Civil Twilight 7:21 AM CST 6:52 PM CST
Nautical Twilight 6:45 AM CST 7:28 PM CST
Astronomical Twilight 6:10 AM CST 8:04 PM CST
Moon 11:55 AM CST 2:47 AM CST
Length of Visible Light 11h 31m
Length of Day
10h 27m
First Quarter, 58% of the Moon is Illuminated
Feb 18
First Quarter
Feb 25
Full
Mar 4
Last Quarter
Mar 11
New
Mar 19
First Quarter

Hourly Weather History & Observations

Time (CST) Temp. Windchill Dew Point Humidity Pressure Visibility Wind Dir Wind Speed Gust Speed Precip Events Conditions
12:15 AM 17.6 °F 0.5 °F 14.0 °F 86% 29.78 in 5.0 mi NNW 21.9 mph 31.1 mph N/A Snow Light Snow
12:35 AM 17.6 °F 0.5 °F 14.0 °F 86% 29.79 in 2.5 mi NNW 21.9 mph 27.6 mph 0.08 in Snow Light Snow
12:55 AM 17.6 °F 1.7 °F 14.0 °F 86% 29.80 in 3.0 mi NNW 18.4 mph 28.8 mph 0.17 in Snow Light Snow
1:15 AM 17.6 °F 1.7 °F 14.0 °F 86% 29.81 in 4.0 mi NNW 18.4 mph 25.3 mph 0.03 in Snow Light Snow
1:35 AM 17.6 °F 0.9 °F 14.0 °F 86% 29.83 in 3.0 mi NNW 20.7 mph 24.2 mph 0.13 in Snow Light Snow
1:55 AM 17.6 °F 0.9 °F 14.0 °F 86% 29.83 in 4.0 mi NNW 20.7 mph 28.8 mph 0.16 in Snow Light Snow
2:15 AM 17.6 °F 2.7 °F 14.0 °F 86% 29.85 in 4.0 mi NNW 16.1 mph - 0.01 in Snow Light Snow
2:35 AM 15.8 °F -1.5 °F 12.2 °F 86% 29.86 in 7.0 mi NNW 20.7 mph 28.8 mph 0.01 in Snow Light Snow
3:15 AM 17.6 °F 0.9 °F 14.0 °F 86% 29.88 in 4.0 mi NW 20.7 mph 27.6 mph 0.01 in Snow Light Snow
3:35 AM 15.8 °F 0.3 °F 10.4 °F 79% 29.90 in 9.0 mi North 16.1 mph - 0.02 in Snow Light Snow
3:55 AM 14.0 °F -5.1 °F 10.4 °F 86% 29.90 in 10.0 mi NNW 24.2 mph - 0.06 in Snow Light Snow
4:15 AM 14.0 °F -2.0 °F 8.6 °F 79% 29.91 in 7.0 mi NNW 16.1 mph - 0.01 in Snow Light Snow
4:35 AM 14.0 °F -3.4 °F 8.6 °F 79% 29.92 in 10.0 mi NNW 19.6 mph 23.0 mph 0.02 in Snow Light Snow
4:55 AM 14.0 °F -1.4 °F 8.6 °F 79% 29.93 in 10.0 mi NNW 15.0 mph - 0.03 in Snow Light Snow
5:15 AM 14.0 °F -1.4 °F 8.6 °F 79% 29.94 in 10.0 mi North 15.0 mph - N/A Snow Light Snow
5:35 AM 14.0 °F -2.0 °F 8.6 °F 79% 29.95 in 8.0 mi NNW 16.1 mph 20.7 mph 0.02 in Snow Light Snow
6:15 AM 14.0 °F -1.4 °F 8.6 °F 79% 29.96 in 5.0 mi NNW 15.0 mph - 0.01 in Snow Light Snow
6:35 AM 14.0 °F -0.8 °F 8.6 °F 79% 29.97 in 1.8 mi NNW 13.8 mph - 0.12 in Snow Light Snow
6:55 AM 14.0 °F -2.5 °F 10.4 °F 86% 29.97 in 1.8 mi NW 17.3 mph 23.0 mph 0.38 in Snow Light Snow
7:15 AM 14.0 °F -1.4 °F 10.4 °F 86% 29.97 in 3.0 mi NNW 15.0 mph - 0.07 in Snow Light Snow
7:35 AM 14.0 °F -1.4 °F 10.4 °F 86% 29.98 in 3.0 mi NNW 15.0 mph - 0.13 in Snow Light Snow
7:55 AM 14.0 °F -2.5 °F 8.6 °F 79% 29.98 in 2.5 mi NNW 17.3 mph - 0.20 in Snow Light Snow
8:15 AM 12.2 °F -2.5 °F 8.6 °F 85% 30.00 in 2.5 mi NW 12.7 mph - 0.05 in Snow Light Snow
8:35 AM 12.2 °F -1.8 °F 8.6 °F 85% 30.01 in 3.0 mi NNW 11.5 mph - 0.11 in Snow Light Snow
8:55 AM 12.2 °F -2.5 °F 8.6 °F 85% 30.02 in 4.0 mi NW 12.7 mph - 0.13 in Snow Light Snow
9:15 AM 12.2 °F -3.1 °F 8.6 °F 85% 30.03 in 10.0 mi NNW 13.8 mph - N/A Snow Light Snow
9:35 AM 12.2 °F -4.8 °F 8.6 °F 85% 30.03 in 8.0 mi NNW 17.3 mph - 0.01 in Snow Light Snow
9:55 AM 12.2 °F -4.3 °F 6.8 °F 79% 30.04 in 6.0 mi North 16.1 mph - 0.02 in Snow Light Snow
10:35 AM 12.2 °F -3.7 °F 6.8 °F 79% 30.05 in 8.0 mi NNW 15.0 mph - 0.01 in Snow Light Snow
10:55 AM 12.2 °F -3.1 °F 6.8 °F 79% 30.06 in 8.0 mi NNW 13.8 mph - 0.03 in Snow Light Snow
11:15 AM 12.2 °F -4.8 °F 6.8 °F 79% 30.06 in 7.0 mi NNW 17.3 mph - N/A Snow Light Snow
11:35 AM 14.0 °F -2.0 °F 8.6 °F 79% 30.07 in 4.0 mi NNW 16.1 mph - 0.02 in Snow Light Snow
11:55 AM 12.2 °F -5.3 °F 6.8 °F 79% 30.07 in 8.0 mi NNW 18.4 mph - 0.05 in Snow Light Snow
12:15 PM 12.2 °F -4.8 °F 6.8 °F 79% 30.08 in 9.0 mi NNW 17.3 mph - N/A Snow Light Snow
12:35 PM 12.2 °F -3.7 °F 6.8 °F 79% 30.08 in 9.0 mi NNW 15.0 mph - N/A Snow Light Snow
12:55 PM 12.2 °F -5.3 °F 6.8 °F 79% 30.09 in 10.0 mi NNW 18.4 mph - 0.01 in Snow Light Snow
1:15 PM 12.2 °F -4.3 °F 6.8 °F 79% 30.09 in 3.0 mi North 16.1 mph - 0.01 in Snow Light Snow
1:35 PM 10.4 °F -7.7 °F 6.8 °F 85% 30.09 in 6.0 mi North 18.4 mph - 0.02 in Snow Light Snow
1:55 PM 10.4 °F -6.0 °F 6.8 °F 85% 30.10 in 8.0 mi North 15.0 mph - 0.02 in Snow Light Snow
2:15 PM 10.4 °F -7.7 °F 5.0 °F 79% 30.10 in 10.0 mi North 18.4 mph - N/A   Overcast
2:35 PM 10.4 °F -9.1 °F 5.0 °F 79% 30.10 in 6.0 mi NNW 21.9 mph 25.3 mph N/A Rain Light Freezing Rain
2:55 PM 10.4 °F -8.2 °F 5.0 °F 79% 30.11 in 6.0 mi NNW 19.6 mph - N/A Rain Light Freezing Rain
3:15 PM 10.4 °F -6.6 °F 3.2 °F 73% 30.12 in 10.0 mi North 16.1 mph - N/A   Mostly Cloudy
3:35 PM 8.6 °F -7.7 °F 3.2 °F 79% 30.13 in 10.0 mi NNW 13.8 mph - N/A Snow Light Snow
3:55 PM 8.6 °F -8.3 °F 3.2 °F 79% 30.14 in 10.0 mi NNW 15.0 mph - N/A   Overcast
4:15 PM 8.6 °F -7.7 °F 3.2 °F 79% 30.15 in 9.0 mi NNW 13.8 mph - N/A Snow Light Snow
4:35 PM 8.6 °F -7.0 °F 3.2 °F 79% 30.15 in 10.0 mi NNW 12.7 mph - N/A Rain Light Freezing Rain
4:55 PM 8.6 °F -7.7 °F 3.2 °F 79% 30.15 in 8.0 mi North 13.8 mph - N/A Snow Light Snow
5:15 PM 8.6 °F -8.3 °F 1.4 °F 73% 30.16 in 9.0 mi North 15.0 mph - N/A Rain Light Freezing Rain
5:35 PM 6.8 °F -10.0 °F 1.4 °F 79% 30.17 in 10.0 mi North 13.8 mph - N/A   Overcast
5:55 PM 6.8 °F -7.8 °F -0.4 °F 72% 30.17 in 10.0 mi North 10.4 mph - N/A   Overcast
6:15 PM 5.0 °F -12.3 °F -0.4 °F 78% 30.18 in 10.0 mi North 13.8 mph - N/A   Mostly Cloudy
6:35 PM 5.0 °F -12.3 °F -0.4 °F 78% 30.18 in 10.0 mi North 13.8 mph - N/A   Mostly Cloudy
6:55 PM 5.0 °F -10.0 °F -0.4 °F 78% 30.19 in 10.0 mi North 10.4 mph - N/A   Partly Cloudy
7:15 PM 3.2 °F -12.2 °F -2.2 °F 78% 30.20 in 10.0 mi North 10.4 mph - N/A   Clear
7:35 PM 1.4 °F -12.5 °F -2.2 °F 85% 30.20 in 10.0 mi North 8.1 mph - N/A   Clear
7:55 PM 1.4 °F -9.9 °F -2.2 °F 85% 30.21 in 10.0 mi NNE 5.8 mph - N/A   Clear
8:15 PM -0.4 °F -10.4 °F -4.0 °F 85% 30.21 in 10.0 mi NNE 4.6 mph - N/A   Partly Cloudy
8:35 PM -0.4 °F -10.4 °F -4.0 °F 85% 30.21 in 10.0 mi North 4.6 mph - N/A Snow Light Snow
8:55 PM -0.4 °F -13.4 °F -4.0 °F 85% 30.21 in 10.0 mi North 6.9 mph - N/A   Partly Cloudy
9:15 PM -2.2 °F - -5.8 °F 85% 30.22 in 10.0 mi Calm Calm - N/A   Clear
9:35 PM -2.2 °F -16.8 °F -7.6 °F 78% 30.22 in 10.0 mi North 8.1 mph - N/A   Clear
9:55 PM -2.2 °F - -7.6 °F 78% 30.23 in 10.0 mi Calm Calm - N/A   Clear
10:15 PM -2.2 °F -10.4 °F -7.6 °F 78% 30.23 in 10.0 mi NNE 3.5 mph - N/A   Clear
10:35 PM -4.0 °F -16.3 °F -9.4 °F 78% 30.23 in 10.0 mi NNE 5.8 mph - N/A   Clear
11:15 PM -5.8 °F - -9.4 °F 84% 30.25 in 10.0 mi Calm Calm - N/A   Clear
11:35 PM -7.6 °F - -11.2 °F 84% 30.26 in 10.0 mi Calm Calm - N/A   Clear
11:55 PM -7.6 °F - -11.2 °F 84% 30.27 in 10.0 mi Calm Calm - N/A   Clear